Regional Weather Roundup
Issued by NWS

Home | Current Version | Previous Version | Graphics & Text | Print | Product List | Glossary On
Versions: 1 2 3 4 5 6 7 8 9 10 11 12 13 14 15 16 17 18 19 20 21 22 23 24 25 26 27 28 29 30 31 32 33 34 35 36 37 38 39 40 41 42 43 44 45 46 47 48 49 50
000
ASUS43 KFSD 191802
RWRSD

WEATHER ROUNDUP FOR SOUTH DAKOTA
NATIONAL WEATHER SERVICE SIOUX FALLS SD
1200 PM CST SUN NOV 19 2017

NOTE: "FAIR" INDICATES FEW OR NO CLOUDS BELOW 12,000 FEET WITH NO
SIGNIFICANT WEATHER AND/OR OBSTRUCTIONS TO VISIBILITY.


SDZ001>005-009-010-012>017-191900-
NORTHWEST AND NORTH CENTRAL SOUTH DAKOTA

CITY           SKY/WX    TMP DP  RH WIND       PRES   REMARKS
BUFFALO          N/A     46  21  37 SW12      29.82F
FAITH            N/A     47  21  35 W10       29.90F
MOBRIDGE       CLOUDY    46  26  45 SW3       29.87F
$$

SDZ012>016-024>037-041>051-057-063-072>074-191900-
SOUTHWEST AND SOUTH CENTRAL SOUTH DAKOTA

CITY           SKY/WX    TMP DP  RH WIND       PRES   REMARKS
RAPID CTY ARPT CLOUDY    46  22  38 S7        29.93F
PIERRE         SUNNY     42  26  53 SW13      29.93F
CUSTER         CLOUDY    46  14  27 W9        29.95F
ELLSWORTH AFB  CLOUDY    51  19  28 S5        29.92F
PHILIP         SUNNY     48  26  42 W10       29.94F
PINE RIDGE     SUNNY     49  19  30 W13G21    30.00F
SPEARFISH      FAIR      48  18  29 NW7       29.92F
WINNER         FAIR      51  27  39 SW9       29.97F
$$

SDZ004>011-016>023-039-040-191900-
NORTHEAST SOUTH DAKOTA

CITY           SKY/WX    TMP DP  RH WIND       PRES   REMARKS
ABERDEEN       SUNNY     44  28  53 S10       29.91F
WATERTOWN      SUNNY     44  25  47 SW16      29.91F
BROOKINGS      SUNNY     45  25  45 SW15      29.96
SISSETON         N/A     46  26  45 SW18G24   29.87F
$$

SDZ017-020-022-023-036>040-048>070-191900-
SOUTHEAST SOUTH DAKOTA

CITY           SKY/WX    TMP DP  RH WIND       PRES   REMARKS
SIOUX FALLS    MOSUNNY   47  27  45 SW10      30.01F
HURON          SUNNY     51  23  33 SW14      29.95F
CHAMBERLAIN    SUNNY     47  29  49 SW8       29.97F
MITCHELL       SUNNY     50  24  36 S12       29.99F
YANKTON        SUNNY     50  25  37 S10       30.02F
$$

ABBREVIATIONS USED IN REMARKS
   TC - TEMPERATURE IN CELSIUS
  WCI - WIND CHILL INDEX
   HX - HEAT INDEX
  VSB - VISIBILITY





USA.gov is the U.S. government's official web portal to all federal, state and local government web resources and services.